TimeEDT,TemperatureF,Dew PointF,Humidity,Sea Level PressureIn,VisibilityMPH,Wind Direction,Wind SpeedMPH,Gust SpeedMPH,PrecipitationIn,Events,Conditions,WindDirDegrees,DateUTC
12:53 AM,63.0,52.0,67,29.97,10.0,SSW,6.9,-,N/A,,Clear,200,2013-05-17 04:53:00
1:53 AM,63.0,57.0,81,29.98,8.0,SW,3.5,-,N/A,,Clear,220,2013-05-17 05:53:00
2:53 AM,61.0,57.0,87,29.98,6.0,SW,4.6,-,N/A,,Clear,220,2013-05-17 06:53:00
3:53 AM,59.0,55.0,87,29.99,4.0,South,4.6,-,N/A,,Clear,170,2013-05-17 07:53:00
4:21 AM,55.4,53.6,94,30.01,2.5,NNE,4.6,-,N/A,,Clear,20,2013-05-17 08:21:00
4:53 AM,55.0,52.0,89,30.00,2.0,Calm,Calm,-,N/A,,Clear,0,2013-05-17 08:53:00
5:08 AM,55.4,53.6,94,30.02,0.8,East,4.6,-,N/A,,Clear,90,2013-05-17 09:08:00
5:20 AM,57.2,53.6,88,30.02,2.0,South,4.6,-,N/A,,Clear,170,2013-05-17 09:20:00
5:31 AM,55.4,53.6,94,30.02,1.2,SSE,4.6,-,N/A,,Partly Cloudy,150,2013-05-17 09:31:00
5:33 AM,55.4,53.6,94,30.02,0.8,SE,4.6,-,N/A,,Mist,130,2013-05-17 09:33:00
5:43 AM,53.6,51.8,94,30.03,0.5,NNE,8.1,-,N/A,Fog,Fog,20,2013-05-17 09:43:00
5:49 AM,53.6,51.8,94,30.03,1.0,ENE,3.5,-,N/A,,Mist,60,2013-05-17 09:49:00
5:53 AM,55.0,53.1,93,30.02,1.2,NNE,5.8,-,N/A,,Scattered Clouds,30,2013-05-17 09:53:00
6:09 AM,53.6,51.8,94,30.03,2.5,ENE,3.5,-,N/A,,Partly Cloudy,70,2013-05-17 10:09:00
6:21 AM,55.4,51.8,88,30.04,4.0,ENE,6.9,-,N/A,,Partly Cloudy,70,2013-05-17 10:21:00
6:53 AM,55.0,50.0,83,30.04,10.0,NE,5.8,-,N/A,,Mostly Cloudy,40,2013-05-17 10:53:00
7:49 AM,57.2,48.2,72,30.06,10.0,East,5.8,-,N/A,,Scattered Clouds,80,2013-05-17 11:49:00
8:53 AM,62.1,50.0,65,30.06,10.0,East,5.8,-,N/A,,Clear,80,2013-05-17 12:53:00
9:53 AM,66.9,54.0,63,30.06,10.0,East,5.8,-,N/A,,Clear,100,2013-05-17 13:53:00
10:53 AM,72.0,57.0,59,30.07,10.0,NNE,5.8,-,N/A,,Clear,30,2013-05-17 14:53:00
11:53 AM,75.9,57.9,54,30.07,10.0,Variable,5.8,-,N/A,,Clear,0,2013-05-17 15:53:00
12:53 PM,78.1,57.9,50,30.06,10.0,ESE,3.5,-,N/A,,Clear,110,2013-05-17 16:53:00
1:53 PM,79.0,59.0,50,30.06,10.0,SE,9.2,-,N/A,,Partly Cloudy,140,2013-05-17 17:53:00
2:53 PM,81.0,57.9,45,30.04,10.0,SSE,11.5,-,N/A,,Scattered Clouds,150,2013-05-17 18:53:00
3:53 PM,82.0,51.1,34,30.03,10.0,SSE,9.2,-,N/A,,Clear,150,2013-05-17 19:53:00
4:53 PM,82.0,48.9,31,30.01,10.0,ESE,8.1,-,N/A,,Clear,110,2013-05-17 20:53:00
5:53 PM,82.9,46.0,27,30.01,10.0,SE,10.4,-,N/A,,Clear,130,2013-05-17 21:53:00
6:53 PM,80.1,46.9,31,30.01,10.0,East,9.2,-,N/A,,Clear,100,2013-05-17 22:53:00
7:53 PM,73.0,48.9,42,30.04,10.0,ENE,9.2,-,N/A,,Clear,60,2013-05-17 23:53:00
8:53 PM,71.1,48.0,44,30.08,10.0,NE,5.8,-,N/A,,Overcast,50,2013-05-18 00:53:00
9:53 PM,69.1,55.9,63,30.09,10.0,Variable,4.6,-,N/A,,Mostly Cloudy,0,2013-05-18 01:53:00
10:53 PM,66.0,45.0,47,30.09,10.0,NE,9.2,-,N/A,,Overcast,50,2013-05-18 02:53:00
11:53 PM,64.0,44.1,48,30.08,10.0,ENE,6.9,-,N/A,,Mostly Cloudy,60,2013-05-18 03:53:00